ND5T-1 Weather Reports


time (UTC)temp
F
wind
direction
speed
knots
gust
knots
rain 1hr
in
rain 24hr
in
rain mn
in
humidity
%
barometer
mb
20260506084333 76 90 0.0 0.9 0.00 0.00 0.00 91 1008.5
20260506083334 76 90 0.0 0.0 0.00 0.00 0.00 92 1008.6
20260506082332 76 90 0.0 0.0 0.00 0.00 0.00 91 1008.7
20260506081333 76 90 0.0 0.0 0.00 0.00 0.00 91 1008.7
20260506080331 76 90 0.0 0.9 0.00 0.00 0.00 91 1009.0
20260506073322 76 90 0.0 0.0 0.00 0.00 0.00 90 1009.3
20260506072321 76 90 0.0 0.0 0.00 0.00 0.00 90 1009.4
20260506071338 76 90 0.0 0.0 0.00 0.00 0.00 90 1009.6
20260506070336 76 90 0.0 0.0 0.00 0.00 0.00 90 1009.6
20260506062329 76 109 0.0 1.7 0.00 0.00 0.00 90 1009.6
20260506061330 76 102 0.0 0.0 0.00 0.00 0.00 90 1009.7
20260506060333 76 105 0.0 0.0 0.00 0.00 0.00 90 1009.6
20260506051320 77 271 0.0 0.0 0.00 0.00 0.00 89 1009.7
20260506050319 77 319 0.0 1.7 0.00 0.00 0.00 89 1009.7
20260506044321 77 130 0.0 1.7 0.00 0.00 0.00 89 1009.6
20260506043322 77 333 0.0 1.7 0.00 0.00 0.00 89 1009.7
20260506042319 77 64 0.0 2.6 0.00 0.00 0.00 88 1009.6
20260506041322 77 204 0.0 1.7 0.00 0.00 0.00 88 1009.5
20260506040323 77 307 0.0 0.9 0.00 0.00 0.00 88 1009.5
20260506035332 77 265 0.0 0.9 0.00 0.00 0.00 87 1009.4
20260506034331 77 9 0.0 1.7 0.00 0.00 0.00 87 1009.3
20260506033354 78 74 0.0 0.0 0.00 0.00 0.00 87 1009.3
20260506032333 78 325 0.0 1.7 0.00 0.00 0.00 87 1009.2
20260506031334 78 92 0.0 1.7 0.00 0.00 0.00 87 1009.1
20260506030317 78 95 0.0 0.0 0.00 0.00 0.00 87 1009.1
20260506025330 78 95 0.0 0.9 0.00 0.00 0.00 86 1008.9
20260506024351 78 86 0.0 0.9 0.00 0.00 0.00 86 1008.6
20260506023331 78 335 0.0 1.7 0.00 0.00 0.00 86 1008.5
20260506022335 78 91 0.0 0.9 0.00 0.00 0.00 85 1008.4
20260506021355 78 91 0.0 2.6 0.00 0.00 0.00 85 1008.3
20260506020332 78 83 0.0 1.7 0.00 0.00 0.00 85 1008.1
20260506015345 78 77 0.0 0.0 0.00 0.00 0.00 84 1008.0
20260506014326 79 77 0.0 1.7 0.00 0.00 0.00 84 1007.9
20260506013325 79 39 0.0 2.6 0.00 0.00 0.00 84 1007.8
20260506012328 79 5 0.0 0.9 0.00 0.00 0.00 84 1007.7
20260506011328 79 176 0.0 0.9 0.00 0.00 0.00 84 1007.5
20260506010330 79 26 0.0 1.7 0.00 0.00 0.00 83 1007.3
20260506005321 80 67 0.0 0.0 0.00 0.00 0.00 83 1007.4
20260506004323 80 67 0.0 0.9 0.00 0.00 0.00 83 1007.3
20260506003327 80 149 0.0 1.7 0.00 0.00 0.00 83 1007.3
20260506002326 80 61 0.0 0.9 0.00 0.00 0.00 82 1007.3
20260506001326 81 61 0.0 0.9 0.00 0.00 0.00 81 1007.1
20260506000323 81 61 0.0 2.6 0.00 0.00 0.00 80 1007.0
20260505235333 81 39 0.0 1.7 0.00 0.00 0.00 79 1007.2
20260505234354 81 109 0.0 0.9 0.00 0.00 0.00 79 1007.1
20260505233329 81 101 0.0 1.7 0.00 0.00 0.00 79 1007.1
20260505232332 82 62 0.0 1.7 0.00 0.00 0.00 78 1007.1
20260505231353 82 118 0.0 1.7 0.00 0.00 0.00 79 1007.2
20260505230334 82 126 0.0 0.9 0.00 0.00 0.00 79 1006.9
20260505225326 82 118 0.0 2.6 0.00 0.00 0.00 78 1007.0
20260505224329 82 111 0.9 7.0 0.00 0.00 0.00 78 1006.8
20260505223344 82 117 0.9 4.3 0.00 0.00 0.00 78 1006.9
20260505222324 83 284 0.0 1.7 0.00 0.00 0.00 78 1007.0
20260505221326 83 317 0.0 1.7 0.00 0.00 0.00 78 1006.8
20260505220327 83 96 0.0 2.6 0.00 0.00 0.00 78 1007.0
20260505215321 83 38 0.0 0.9 0.00 0.00 0.00 79 1007.2
20260505214324 83 30 0.9 3.5 0.00 0.00 0.00 78 1007.4
20260505213321 83 340 0.0 2.6 0.00 0.00 0.00 78 1007.6
20260505212321 83 103 0.0 0.9 0.00 0.00 0.00 78 1007.6
20260505211321 83 102 0.0 1.7 0.00 0.00 0.00 77 1007.7
20260505210322 84 82 0.0 2.6 0.00 0.00 0.00 77 1007.8
20260505205345 84 63 0.0 6.1 0.00 0.00 0.00 75 1007.9
20260505204325 84 121 0.9 5.2 0.00 0.00 0.00 76 1008.1
20260505203329 83 165 0.0 1.7 0.00 0.00 0.00 77 1008.1
20260505202328 83 47 0.0 2.6 0.00 0.00 0.00 79 1008.3
20260505201347 82 42 0.0 0.9 0.00 0.00 0.00 78 1008.6
20260505200328 83 18 0.0 1.7 0.00 0.00 0.00 78 1008.6
20260505195321 83 271 0.9 2.6 0.00 0.00 0.00 77 1008.7
20260505194319 83 290 0.9 6.1 0.00 0.00 0.00 78 1008.8
20260505193339 83 279 0.9 2.6 0.00 0.00 0.00 78 1008.8
20260505192335 82 113 0.9 5.2 0.00 0.00 0.00 79 1008.8
20260505191331 82 284 0.0 1.7 0.00 0.00 0.00 80 1009.0
20260505190351 81 44 0.0 1.7 0.00 0.00 0.00 80 1009.1
20260505185321 80 165 0.9 2.6 0.00 0.00 0.00 81 1009.3
20260505184323 80 148 0.0 1.7 0.00 0.00 0.00 81 1009.4
20260505183323 80 194 0.9 6.1 0.00 0.00 0.00 82 1009.4
20260505182325 80 140 0.0 3.5 0.00 0.00 0.00 83 1009.5
20260505181327 80 138 0.0 0.9 0.00 0.00 0.00 84 1009.5
20260505180328 79 138 0.0 0.9 0.00 0.00 0.00 83 1009.5
20260505175317 79 104 0.9 2.6 0.00 0.00 0.00 83 1009.5
20260505174317 78 120 0.0 2.6 0.00 0.00 0.00 85 1009.6
20260505173321 78 109 0.0 0.9 0.00 0.00 0.00 86 1009.7
20260505172319 78 121 0.0 0.9 0.00 0.00 0.00 86 1009.8
20260505171340 78 150 0.0 0.0 0.00 0.00 0.00 86 1009.9
20260505170323 78 150 0.0 0.9 0.00 0.00 0.00 85 1010.0
20260505165333 78 152 0.0 4.3 0.00 0.00 0.00 85 1009.9
20260505164332 78 79 0.0 1.7 0.00 0.00 0.00 85 1009.9
20260505163334 77 108 0.0 0.9 0.00 0.00 0.00 86 1010.1
20260505162355 77 108 0.0 1.7 0.00 0.00 0.00 86 1010.1
20260505161357 77 109 0.0 1.7 0.00 0.00 0.00 86 1009.9
20260505160337 77 98 0.0 1.7 0.00 0.00 0.00 85 1010.0
20260505153324 77 109 0.0 2.6 0.00 0.00 0.00 86 1009.7
20260505152325 76 103 0.0 0.9 0.00 0.00 0.00 87 1009.8
20260505151329 76 82 0.0 1.7 0.00 0.00 0.00 87 1009.8
20260505150330 76 86 0.0 1.7 0.00 0.00 0.00 86 1009.8
20260505140319 75 55 0.0 4.3 0.00 0.00 0.00 88 1009.2
20260505124331 73 58 0.0 0.9 0.00 0.00 0.00 90 1008.9
20260505123330 72 57 0.0 3.5 0.00 0.00 0.00 90 1009.3
20260505122328 72 180 0.0 0.9 0.00 0.00 0.00 91 1009.2
20260505121330 72 180 0.9 1.7 0.00 0.00 0.00 91 1009.1
20260505120332 72 348 0.0 0.9 0.00 0.00 0.00 91 1008.9
20260505115322 72 76 0.0 0.9 0.00 0.00 0.00 91 1008.8
20260505114320 72 59 0.0 1.7 0.00 0.00 0.00 91 1009.0
20260505113340 71 132 0.0 1.7 0.00 0.00 0.00 91 1009.0
20260505112320 71 65 0.0 0.9 0.00 0.00 0.00 92 1008.9
20260505111323 71 65 0.0 0.0 0.00 0.00 0.00 92 1008.8
20260505110324 71 65 0.0 0.0 0.00 0.00 0.00 92 1008.7
20260505101335 70 65 0.0 0.0 0.00 0.00 0.00 92 1008.9
20260505100334 69 65 0.0 0.0 0.00 0.00 0.00 92 1009.1
20260505095346 69 65 0.0 0.0 0.00 0.00 0.00 92 1008.9
20260505094325 69 65 0.0 0.0 0.00 0.00 0.00 91 1009.0
20260505093325 69 65 0.0 0.0 0.00 0.00 0.00 91 1009.1
20260505092326 69 65 0.0 0.0 0.00 0.00 0.00 91 1009.2
20260505091325 69 65 0.0 0.0 0.00 0.00 0.00 91 1009.2
20260505090325 69 65 0.0 0.0 0.00 0.00 0.00 91 1009.3
20260505085335 69 65 0.0 0.0 0.00 0.00 0.00 90 1009.2